Cape Moreton Observation History
Time Wind Speed Temp Pressure Rel. Hum Rain
03/05:30am WSW 15-19 kts 11.0°c 1019.2 hPa 62% 0.0mm
03/05:00am WSW 11-17 kts 11.0°c 1018.9 hPa 60% 0.0mm
03/04:30am WSW 11-14 kts 11.3°c 1018.9 hPa 58% 0.0mm
03/04:00am WSW 11-13 kts 11.5°c 1018.9 hPa 57% 0.0mm
03/03:30am W 11-14 kts 11.6°c 1019.1 hPa 57% 0.0mm
03/03:00am WSW 9-11 kts 12.1°c 1019.3 hPa 55% 0.0mm
03/02:30am W 9-12 kts 11.9°c 1019.2 hPa 57% 0.0mm
03/02:00am W 12-15 kts 12.1°c 1019.3 hPa 55% 0.0mm
03/01:30am WSW 9-11 kts 12.3°c 1019.5 hPa 55% 0.0mm
03/01:00am WSW 9-11 kts 12.4°c 1019.9 hPa 54% 0.0mm
03/12:30am WSW 8-11 kts 12.6°c 1019.9 hPa 53% 0.0mm
03/12:00am WNW 6-11 kts 13.0°c 1020.2 hPa 50% 0.0mm
Time Wind Speed Temp Pressure Rel. Hum Rain
02/11:30pm SW 6-11 kts 13.2°c 1020.6 hPa 50% 0.0mm
02/11:00pm SW 6-11 kts 13.3°c 1020.6 hPa 48% 0.0mm
02/10:30pm WSW 10-17 kts 13.5°c 1020.4 hPa 47% 0.0mm
02/10:06pm WSW 17-27 kts 13.9°c 1020.1 hPa 45% 0.0mm
02/10:00pm WSW 19-27 kts 14.0°c 1019.9 hPa 43% 0.0mm
02/09:36pm WSW 23-33 kts 14.3°c 1019.4 hPa 42% 0.0mm
02/09:30pm WSW 24-33 kts 14.4°c 1019.1 hPa 41% 0.0mm
02/09:06pm WSW 24-34 kts 14.6°c 1018.9 hPa 40% 0.0mm
02/09:00pm WSW 24-33 kts 14.7°c 1019.1 hPa 40% 0.0mm
02/08:53pm WSW 22-32 kts 14.8°c 1019.2 hPa 40% 0.0mm
02/08:30pm WSW 22-30 kts 14.8°c 1018.9 hPa 38% 0.0mm
02/08:00pm WSW 18-23 kts 14.5°c 1019.2 hPa 42% 0.0mm
02/07:30pm WSW 15-20 kts 15.0°c 1019.2 hPa 39% 0.0mm
02/07:00pm WSW 9-15 kts 15.3°c 1019.3 hPa 40% 0.0mm
02/06:30pm WSW 10-17 kts 15.9°c 1018.9 hPa 36% 0.0mm
02/06:00pm WSW 9-15 kts 15.9°c 1018.5 hPa 36% 0.0mm
02/05:30pm SW 9-13 kts 15.7°c 1018.0 hPa 36% 0.0mm
02/05:00pm WSW 6-9 kts 16.3°c 1017.8 hPa 35% 0.0mm
02/04:30pm WSW 9-14 kts 16.8°c 1017.3 hPa 34% 0.0mm
02/04:00pm WSW 14-20 kts 17.4°c 1016.5 hPa 32% 0.0mm
02/03:30pm WSW 11-16 kts 17.6°c 1016.9 hPa 34% 0.0mm
02/03:00pm WSW 11-18 kts 18.0°c 1016.9 hPa 31% 0.0mm
02/02:30pm WSW 15-22 kts 17.6°c 1016.8 hPa 30% 0.0mm
02/02:00pm WSW 15-22 kts 17.9°c 1016.8 hPa 33% 0.0mm
02/01:30pm WSW 16-26 kts 17.8°c 1017.0 hPa 34% 0.0mm
02/01:07pm WSW 17-27 kts 17.3°c 1016.9 hPa 31% 0.0mm
02/01:00pm WSW 16-25 kts 17.3°c 1016.9 hPa 33% 0.0mm
02/12:34pm WSW 15-25 kts 17.3°c 1017.3 hPa 34% 0.0mm
02/12:30pm WSW 17-25 kts 17.2°c 1017.3 hPa 35% 0.0mm
02/12:00pm WSW 15-27 kts 16.9°c 1017.7 hPa 36% 0.0mm
02/11:30am WSW 21-34 kts 16.2°c 1017.5 hPa 35% 0.0mm
02/11:00am WSW 17-29 kts 16.4°c 1017.7 hPa 39% 0.0mm
02/10:30am WSW 17-35 kts 15.9°c 1017.5 hPa 39% 0.0mm
02/10:00am WSW 21-31 kts 15.7°c 1017.7 hPa 41% 0.0mm
02/09:40am WSW 15-25 kts 15.6°c 1017.7 hPa 43% 0.0mm
02/09:30am WSW 13-26 kts 15.4°c 1017.9 hPa 47% 0.0mm
02/09:00am WSW 18-28 kts 15.0°c 1017.7 hPa 48% 0.2mm
02/08:49am WSW 16-27 kts 15.1°c 1017.8 hPa 50% 0.2mm
02/08:30am WSW 19-25 kts 15.0°c 1017.7 hPa 54% 0.2mm
02/08:00am WSW 17-25 kts 15.0°c 1017.6 hPa 54% 0.2mm
02/07:48am WSW 15-25 kts 15.0°c 1017.5 hPa 53% 0.2mm
02/07:30am WSW 15-21 kts 15.1°c 1017.6 hPa 54% 0.2mm
02/07:00am WSW 16-24 kts 15.3°c 1017.4 hPa 52% 0.2mm
02/06:30am WSW 15-24 kts 15.5°c 1016.8 hPa 54% 0.2mm
02/06:00am WSW 15-25 kts 16.1°c 1016.3 hPa 51% 0.2mm
02/05:58am WSW 15-25 kts 16.1°c 1016.4 hPa 52% 0.2mm
02/05:30am WSW 16-24 kts 16.4°c 1016.1 hPa 53% 0.2mm
02/05:00am WSW 14-21 kts 16.5°c 1015.5 hPa 55% 0.2mm
02/04:30am WSW 13-19 kts 16.7°c 1015.3 hPa 58% 0.2mm
02/04:00am WSW 13-17 kts 17.3°c 1015.3 hPa 63% 0.2mm
02/03:30am W 14-21 kts 18.0°c 1015.3 hPa 81% 0.2mm
02/03:00am WNW 15-22 kts 18.1°c 1014.8 hPa 89% 0.2mm
02/02:30am NW 16-23 kts 18.5°c 1014.7 hPa 89% 0.0mm
02/02:16am WNW 17-27 kts 18.7°c 1014.7 hPa 85% 0.0mm
02/02:00am WNW 15-21 kts 19.0°c 1014.4 hPa 82% 0.0mm
02/01:30am NW 18-23 kts 19.1°c 1014.4 hPa 86% 0.0mm
02/01:00am NW 20-29 kts 18.8°c 1014.9 hPa 87% 0.0mm
02/12:30am NW 18-25 kts 18.8°c 1014.9 hPa 89% 0.0mm
02/12:00am NW 21-28 kts 18.6°c 1015.0 hPa 89% 0.0mm
Time Wind Speed Temp Pressure Rel. Hum Rain
01/11:30pm NNW 20-26 kts 18.9°c 1015.1 hPa 89% 0.0mm
01/11:00pm NNW 19-27 kts 18.8°c 1015.4 hPa 87% 0.0mm
01/10:30pm NNW 17-26 kts 19.1°c 1015.6 hPa 86% 0.0mm
01/10:00pm NNW 18-25 kts 19.4°c 1015.5 hPa 84% 0.0mm
01/09:30pm NNW 17-23 kts 19.7°c 1015.8 hPa 83% 0.0mm
01/09:00pm NNW 17-27 kts 19.9°c 1015.9 hPa 78% 0.0mm
01/08:59pm NNW 17-27 kts 19.9°c 1015.9 hPa 78% 0.0mm
01/08:30pm NNW 17-24 kts 20.0°c 1015.9 hPa 81% 0.0mm
01/08:00pm NNW 20-28 kts 20.1°c 1015.8 hPa 80% 0.0mm
01/07:30pm NNW 21-28 kts 20.3°c 1015.5 hPa 79% 0.0mm
01/07:00pm NNW 20-25 kts 20.6°c 1015.6 hPa 75% 0.0mm
01/06:30pm N 21-26 kts 20.7°c 1015.3 hPa 76% 0.0mm
01/06:00pm N 19-25 kts 20.4°c 1015.2 hPa 78% 0.0mm
01/05:30pm N 19-23 kts 20.4°c 1015.0 hPa 77% 0.0mm
01/05:00pm NNW 18-23 kts 20.4°c 1015.0 hPa 77% 0.0mm
01/04:30pm NNW 16-23 kts 20.4°c 1014.8 hPa 78% 0.0mm
01/04:00pm N 17-23 kts 20.6°c 1014.6 hPa 81% 0.0mm
01/03:30pm N 15-19 kts 20.7°c 1014.7 hPa 76% 0.0mm
01/03:00pm NNW 13-18 kts 20.8°c 1014.7 hPa 74% 0.0mm
01/02:30pm NNW 12-17 kts 21.2°c 1014.9 hPa 76% 0.0mm
01/02:00pm NNW 13-18 kts 21.1°c 1015.1 hPa 76% 0.0mm
01/01:30pm N 12-16 kts 20.8°c 1015.2 hPa 76% 0.0mm
01/01:00pm N 10-13 kts 21.6°c 1015.6 hPa 78% 0.0mm
01/12:30pm N 9-13 kts 21.1°c 1015.9 hPa 78% 0.0mm
01/12:00pm NNW 7-9 kts 20.4°c 1016.6 hPa 81% 0.0mm
01/11:30am NNW 8-10 kts 19.8°c 1017.2 hPa 80% 0.0mm
01/11:00am NW 7-9 kts 19.9°c 1017.8 hPa 79% 0.0mm
01/10:30am WNW 6-9 kts 19.7°c 1018.3 hPa 81% 0.0mm
01/10:00am WNW 8-10 kts 19.1°c 1018.5 hPa 81% 0.0mm
01/09:30am WNW 8-10 kts 19.1°c 1018.9 hPa 83% 0.0mm
01/09:00am W 7-10 kts 19.0°c 1019.0 hPa 84% 0.2mm
01/08:30am WNW 9-11 kts 18.8°c 1019.0 hPa 85% 0.2mm
01/08:00am WNW 9-11 kts 18.2°c 1018.8 hPa 86% 0.2mm
01/07:30am WNW 8-9 kts 17.9°c 1018.7 hPa 88% 0.2mm
01/07:00am WNW 10-11 kts 17.5°c 1018.5 hPa 89% 0.2mm
01/06:30am W 10-11 kts 17.2°c 1018.4 hPa 89% 0.2mm
01/06:00am W 10-11 kts 16.9°c 1018.1 hPa 91% 0.2mm
01/05:30am W 10-11 kts 17.1°c 1018.1 hPa 90% 0.2mm
01/05:00am W 10-11 kts 17.2°c 1017.8 hPa 89% 0.2mm
01/04:30am W 9-11 kts 17.2°c 1017.8 hPa 89% 0.2mm
01/04:00am W 10-11 kts 17.1°c 1017.6 hPa 90% 0.2mm
01/03:30am W 11-12 kts 17.1°c 1017.9 hPa 91% 0.2mm
01/03:00am W 11 kts 17.2°c 1018.0 hPa 91% 0.2mm
01/02:30am W 11-13 kts 17.1°c 1018.0 hPa 92% 0.2mm
01/02:00am W 10-11 kts 17.1°c 1018.0 hPa 92% 0.2mm
01/01:30am W 10-12 kts 17.4°c 1018.4 hPa 92% 0.2mm
01/01:00am WNW 11-12 kts 17.8°c 1018.7 hPa 90% 0.2mm
01/12:30am NW 9-12 kts 19.1°c 1018.8 hPa 81% 0.2mm
01/12:00am N 8-12 kts 19.9°c 1019.1 hPa 72% 0.2mm